N400SL KPDX-KBOI

Flight info

Callsign N400SL
Flight time 1h 25m
Altitude 035/VFR
Route
Aircraft B350/L-VGDW/C

Departure

Time 2026-05-06 23:06
Airport Portland International Airport (KPDX)

Arrival

Time 2026-05-07 00:32
Airport Boise Air Terminal/Gowen Field (KBOI)
Time Latitude Longitude Altitude Speed Heading
2026-05-06 23:02 45.58550 -122.57702 37 ft 0 kts 28°
2026-05-06 23:02 45.58553 -122.57700 38 ft 6 kts 28°
2026-05-06 23:03 45.58600 -122.57623 37 ft 9 kts 110°
2026-05-06 23:03 45.58550 -122.57497 35 ft 20 kts 122°
2026-05-06 23:03 45.58475 -122.57308 33 ft 24 kts 118°
2026-05-06 23:03 45.58388 -122.57082 34 ft 25 kts 119°
2026-05-06 23:04 45.58335 -122.56949 37 ft 11 kts 117°
2026-05-06 23:04 45.58337 -122.56918 38 ft 6 kts 44°
2026-05-06 23:04 45.58343 -122.56912 38 ft 0 kts 30°
2026-05-06 23:05 45.58349 -122.56907 37 ft 9 kts 29°
2026-05-06 23:05 45.58478 -122.56998 33 ft 34 kts 300°
2026-05-06 23:06 45.58766 -122.57732 39 ft 124 kts 299°
2026-05-06 23:06 45.59264 -122.59014 206 ft 162 kts 298°
2026-05-06 23:06 45.59816 -122.60502 539 ft 175 kts 296°
2026-05-06 23:06 45.60539 -122.61843 1169 ft 162 kts 324°
2026-05-06 23:07 45.61583 -122.62329 1772 ft 164 kts
2026-05-06 23:07 45.62700 -122.61839 2137 ft 178 kts 21°
2026-05-06 23:07 45.63871 -122.61186 2573 ft 178 kts 16°
2026-05-06 23:07 45.65055 -122.60666 3058 ft 180 kts 15°
2026-05-06 23:08 45.66318 -122.60121 3069 ft 203 kts 17°
2026-05-06 23:08 45.67672 -122.59434 3191 ft 210 kts 21°
2026-05-06 23:08 45.69020 -122.58578 3306 ft 213 kts 32°
2026-05-06 23:08 45.69991 -122.57043 3475 ft 212 kts 70°
2026-05-06 23:09 45.69905 -122.55081 4019 ft 196 kts 116°
2026-05-06 23:09 45.69177 -122.53429 4322 ft 199 kts 126°
2026-05-06 23:09 45.68319 -122.51885 4719 ft 195 kts 131°
2026-05-06 23:09 45.67378 -122.50488 5053 ft 199 kts 137°
2026-05-06 23:10 45.66294 -122.49167 5168 ft 208 kts 141°
2026-05-06 23:10 45.65190 -122.47886 5573 ft 202 kts 141°
2026-05-06 23:10 45.64094 -122.46588 5491 ft 218 kts 142°
2026-05-06 23:10 45.62782 -122.45184 4712 ft 234 kts 146°
2026-05-06 23:11 45.61495 -122.43927 4132 ft 215 kts 146°
2026-05-06 23:11 45.60315 -122.42776 3589 ft 200 kts 146°
2026-05-06 23:11 45.59196 -122.41758 3349 ft 179 kts 155°
2026-05-06 23:11 45.58028 -122.41393 3331 ft 176 kts 183°
2026-05-06 23:12 45.56807 -122.41742 3212 ft 185 kts 195°
2026-05-06 23:12 45.55543 -122.42274 3260 ft 194 kts 197°
2026-05-06 23:12 45.54225 -122.42844 3266 ft 202 kts 196°
2026-05-06 23:12 45.52850 -122.43390 3243 ft 208 kts 196°
2026-05-06 23:13 45.51453 -122.43945 3267 ft 209 kts 195°
2026-05-06 23:13 45.50045 -122.44512 3269 ft 211 kts 197°
2026-05-06 23:13 45.48631 -122.45080 3311 ft 212 kts 195°
2026-05-06 23:13 45.47187 -122.45574 3314 ft 215 kts 193°
2026-05-06 23:14 45.45703 -122.45840 3299 ft 215 kts 174°
2026-05-06 23:14 45.44369 -122.44962 3324 ft 217 kts 135°
2026-05-06 23:14 45.43615 -122.43069 3233 ft 222 kts 112°
2026-05-06 23:14 45.43023 -122.41040 3253 ft 223 kts 114°
2026-05-06 23:15 45.42364 -122.39040 3286 ft 223 kts 116°
2026-05-06 23:15 45.41696 -122.37049 3321 ft 223 kts 116°
2026-05-06 23:15 45.41032 -122.35056 3369 ft 222 kts 115°
2026-05-06 23:15 45.40382 -122.33059 3346 ft 223 kts 115°
2026-05-06 23:16 45.39752 -122.31119 3785 ft 206 kts 115°
2026-05-06 23:16 45.39139 -122.29342 4277 ft 198 kts 116°
2026-05-06 23:16 45.38525 -122.27592 4647 ft 199 kts 116°
2026-05-06 23:16 45.38118 -122.26424 4898 ft 199 kts 117°
2026-05-06 23:17 45.37488 -122.24677 5280 ft 198 kts 118°
2026-05-06 23:17 45.36850 -122.22934 5651 ft 199 kts 118°
2026-05-06 23:17 45.36212 -122.21185 6050 ft 200 kts 118°
2026-05-06 23:17 45.35574 -122.19428 6399 ft 200 kts 117°
2026-05-06 23:18 45.34939 -122.17672 6775 ft 199 kts 117°
2026-05-06 23:18 45.34353 -122.15885 7146 ft 200 kts 112°
2026-05-06 23:18 45.33847 -122.14041 7506 ft 200 kts 111°
2026-05-06 23:18 45.33382 -122.12184 7890 ft 199 kts 108°
2026-05-06 23:19 45.32990 -122.10296 8265 ft 199 kts 105°
2026-05-06 23:19 45.32627 -122.08395 8641 ft 199 kts 105°
2026-05-06 23:19 45.32275 -122.06491 9027 ft 199 kts 104°
2026-05-06 23:19 45.31927 -122.04581 9398 ft 200 kts 104°
2026-05-06 23:20 45.31582 -122.02668 9768 ft 200 kts 104°
2026-05-06 23:20 45.31236 -122.00750 10140 ft 200 kts 104°
2026-05-06 23:20 45.30891 -121.98831 10523 ft 201 kts 104°
2026-05-06 23:20 45.30549 -121.96933 10892 ft 201 kts 104°
2026-05-06 23:21 45.30201 -121.94994 11271 ft 205 kts 104°
2026-05-06 23:21 45.29845 -121.93009 11649 ft 210 kts 104°
2026-05-06 23:21 45.29480 -121.90979 12027 ft 214 kts 104°
2026-05-06 23:21 45.29110 -121.88915 12401 ft 217 kts 104°
2026-05-06 23:22 45.28734 -121.86830 12766 ft 219 kts 104°
2026-05-06 23:22 45.28355 -121.84726 13155 ft 220 kts 104°
2026-05-06 23:22 45.27975 -121.82610 13534 ft 222 kts 104°
2026-05-06 23:22 45.27591 -121.80476 13911 ft 223 kts 104°
2026-05-06 23:23 45.27206 -121.78334 14285 ft 224 kts 104°
2026-05-06 23:23 45.26820 -121.76182 14659 ft 225 kts 104°
2026-05-06 23:23 45.26437 -121.74050 14994 ft 228 kts 104°
2026-05-06 23:23 45.26038 -121.71831 15157 ft 237 kts 104°
2026-05-06 23:24 45.25531 -121.69556 15236 ft 246 kts 111°
2026-05-06 23:24 45.24880 -121.67292 15268 ft 247 kts 113°
2026-05-06 23:24 45.24204 -121.65077 15284 ft 242 kts 114°
2026-05-06 23:24 45.23529 -121.62913 15293 ft 239 kts 114°
2026-05-06 23:25 45.22856 -121.60775 15316 ft 237 kts 114°
2026-05-06 23:25 45.22183 -121.58645 15309 ft 236 kts 114°
2026-05-06 23:25 45.21513 -121.56528 15301 ft 235 kts 114°
2026-05-06 23:25 45.20844 -121.54414 15302 ft 234 kts 114°
2026-05-06 23:26 45.20177 -121.52308 15302 ft 234 kts 114°
2026-05-06 23:26 45.19511 -121.50208 15304 ft 233 kts 114°
2026-05-06 23:26 45.18846 -121.48110 15302 ft 233 kts 114°
2026-05-06 23:26 45.18182 -121.46013 15302 ft 233 kts 114°
2026-05-06 23:27 45.17518 -121.43918 15311 ft 233 kts 114°
2026-05-06 23:27 45.16856 -121.41829 15302 ft 233 kts 114°
2026-05-06 23:27 45.16194 -121.39739 15303 ft 232 kts 114°
2026-05-06 23:27 45.15532 -121.37649 15304 ft 233 kts 114°
2026-05-06 23:28 45.14878 -121.35583 15303 ft 233 kts 114°
2026-05-06 23:28 45.14216 -121.33491 15304 ft 233 kts 114°
2026-05-06 23:28 45.13554 -121.31401 15302 ft 233 kts 114°
2026-05-06 23:28 45.12891 -121.29310 15300 ft 233 kts 114°
2026-05-06 23:29 45.12229 -121.27219 15302 ft 232 kts 114°
2026-05-06 23:29 45.11569 -121.25133 15302 ft 232 kts 114°
2026-05-06 23:29 45.10908 -121.23044 15302 ft 232 kts 114°
2026-05-06 23:29 45.10248 -121.20961 15316 ft 232 kts 114°
2026-05-06 23:30 45.09588 -121.18876 15311 ft 232 kts 114°
2026-05-06 23:30 45.08928 -121.16791 15309 ft 232 kts 114°
2026-05-06 23:30 45.08268 -121.14704 15304 ft 232 kts 114°
2026-05-06 23:30 45.07607 -121.12614 15301 ft 232 kts 114°
2026-05-06 23:31 45.06947 -121.10527 15303 ft 232 kts 114°
2026-05-06 23:31 45.06286 -121.08440 15304 ft 233 kts 114°
2026-05-06 23:31 45.05626 -121.06352 15301 ft 233 kts 114°
2026-05-06 23:31 45.04965 -121.04261 15304 ft 233 kts 114°
2026-05-06 23:32 45.04318 -121.02158 15303 ft 233 kts 111°
2026-05-06 23:32 45.03752 -121.00017 15302 ft 233 kts 110°
2026-05-06 23:32 45.03207 -120.97864 15302 ft 233 kts 109°
2026-05-06 23:32 45.02671 -120.95709 15310 ft 232 kts 109°
2026-05-06 23:33 45.02138 -120.93551 15303 ft 232 kts 109°
2026-05-06 23:33 45.01607 -120.91392 15303 ft 233 kts 109°
2026-05-06 23:33 45.01076 -120.89235 15303 ft 233 kts 109°
2026-05-06 23:33 45.00546 -120.87075 15305 ft 232 kts 109°
2026-05-06 23:34 45.00017 -120.84919 15316 ft 233 kts 109°
2026-05-06 23:34 44.99488 -120.82759 15308 ft 233 kts 109°
2026-05-06 23:34 44.98958 -120.80598 15303 ft 233 kts 109°
2026-05-06 23:34 44.98437 -120.78468 15303 ft 233 kts 109°
2026-05-06 23:35 44.97907 -120.76308 15312 ft 233 kts 109°
2026-05-06 23:35 44.97379 -120.74150 15313 ft 233 kts 109°
2026-05-06 23:35 44.96849 -120.71987 15305 ft 233 kts 109°
2026-05-06 23:35 44.96320 -120.69825 15304 ft 233 kts 109°
2026-05-06 23:36 44.95791 -120.67664 15303 ft 233 kts 109°
2026-05-06 23:36 44.95262 -120.65502 15307 ft 233 kts 109°
2026-05-06 23:36 44.94733 -120.63341 15303 ft 233 kts 109°
2026-05-06 23:36 44.94204 -120.61178 15302 ft 233 kts 109°
2026-05-06 23:37 44.93675 -120.59014 15302 ft 233 kts 109°
2026-05-06 23:37 44.93148 -120.56856 15321 ft 233 kts 109°
2026-05-06 23:37 44.92620 -120.54697 15302 ft 233 kts 109°
2026-05-06 23:37 44.92093 -120.52540 15303 ft 233 kts 109°
2026-05-06 23:38 44.91567 -120.50385 15302 ft 232 kts 109°
2026-05-06 23:38 44.91042 -120.48232 15303 ft 232 kts 109°
2026-05-06 23:38 44.90516 -120.46077 15305 ft 232 kts 109°
2026-05-06 23:38 44.89991 -120.43927 15304 ft 232 kts 109°
2026-05-06 23:39 44.89466 -120.41775 15303 ft 232 kts 109°
2026-05-06 23:39 44.88941 -120.39622 15303 ft 232 kts 109°
2026-05-06 23:39 44.88415 -120.37466 15303 ft 232 kts 109°
2026-05-06 23:39 44.87890 -120.35312 15311 ft 232 kts 109°
2026-05-06 23:40 44.87364 -120.33154 15302 ft 232 kts 109°
2026-05-06 23:40 44.86838 -120.30996 15314 ft 233 kts 109°
2026-05-06 23:40 44.86313 -120.28839 15309 ft 233 kts 109°
2026-05-06 23:40 44.85787 -120.26683 15304 ft 233 kts 109°
2026-05-06 23:41 44.85261 -120.24523 15303 ft 233 kts 109°
2026-05-06 23:41 44.84735 -120.22363 15303 ft 233 kts 109°
2026-05-06 23:41 44.84209 -120.20201 15302 ft 233 kts 109°
2026-05-06 23:41 44.83689 -120.18067 15303 ft 233 kts 109°
2026-05-06 23:42 44.83163 -120.15905 15303 ft 233 kts 109°
2026-05-06 23:42 44.82637 -120.13744 15314 ft 233 kts 109°
2026-05-06 23:42 44.82112 -120.11580 15301 ft 233 kts 109°
2026-05-06 23:42 44.81587 -120.09421 15305 ft 233 kts 109°
2026-05-06 23:43 44.81061 -120.07258 15304 ft 233 kts 109°
2026-05-06 23:43 44.80536 -120.05096 15307 ft 234 kts 109°
2026-05-06 23:43 44.80010 -120.02934 15311 ft 233 kts 109°
2026-05-06 23:43 44.79484 -120.00768 15302 ft 233 kts 109°
2026-05-06 23:44 44.78958 -119.98602 15303 ft 233 kts 109°
2026-05-06 23:44 44.78433 -119.96442 15304 ft 233 kts 109°
2026-05-06 23:44 44.77908 -119.94279 15301 ft 234 kts 109°
2026-05-06 23:44 44.77383 -119.92117 15302 ft 234 kts 109°
2026-05-06 23:45 44.76864 -119.89980 15309 ft 233 kts 109°
2026-05-06 23:45 44.76341 -119.87820 15313 ft 234 kts 109°
2026-05-06 23:45 44.75815 -119.85652 15302 ft 234 kts 109°
2026-05-06 23:45 44.75290 -119.83487 15302 ft 234 kts 109°
2026-05-06 23:46 44.74765 -119.81321 15301 ft 234 kts 109°
2026-05-06 23:46 44.74240 -119.79154 15313 ft 234 kts 109°
2026-05-06 23:46 44.73717 -119.76992 15302 ft 234 kts 109°
2026-05-06 23:46 44.73288 -119.75220 15302 ft 234 kts 109°
2026-05-06 23:47 44.72815 -119.73264 15302 ft 234 kts 109°
2026-05-06 23:47 44.72291 -119.71099 15304 ft 234 kts 109°
2026-05-06 23:47 44.71767 -119.68935 15302 ft 234 kts 109°
2026-05-06 23:47 44.71244 -119.66774 15302 ft 233 kts 109°
2026-05-06 23:48 44.70722 -119.64617 15303 ft 233 kts 109°
2026-05-06 23:48 44.70147 -119.62489 15308 ft 232 kts 117°
2026-05-06 23:48 44.69445 -119.60440 15302 ft 233 kts 115°
2026-05-06 23:48 44.68776 -119.58364 15316 ft 233 kts 114°
2026-05-06 23:49 44.68119 -119.56280 15308 ft 234 kts 114°
2026-05-06 23:49 44.67464 -119.54186 15300 ft 234 kts 114°
2026-05-06 23:49 44.66811 -119.52093 15309 ft 234 kts 114°
2026-05-06 23:49 44.66160 -119.50002 15303 ft 234 kts 114°
2026-05-06 23:50 44.65515 -119.47927 15302 ft 234 kts 114°
2026-05-06 23:50 44.64212 -119.43738 15301 ft 234 kts 114°
2026-05-06 23:50 44.63561 -119.41645 15309 ft 234 kts 114°
2026-05-06 23:51 44.62911 -119.39553 15301 ft 234 kts 114°
2026-05-06 23:51 44.62262 -119.37465 15303 ft 233 kts 114°
2026-05-06 23:51 44.61613 -119.35377 15313 ft 234 kts 114°
2026-05-06 23:51 44.60963 -119.33287 15316 ft 234 kts 114°
2026-05-06 23:52 44.60314 -119.31194 15300 ft 234 kts 114°
2026-05-06 23:52 44.59664 -119.29103 15300 ft 234 kts 114°
2026-05-06 23:52 44.59014 -119.27014 15302 ft 234 kts 114°
2026-05-06 23:52 44.58365 -119.24926 15304 ft 234 kts 114°
2026-05-06 23:53 44.57715 -119.22834 15304 ft 234 kts 114°
2026-05-06 23:53 44.57064 -119.20740 15313 ft 234 kts 114°
2026-05-06 23:53 44.56414 -119.18645 15300 ft 234 kts 114°
2026-05-06 23:53 44.55764 -119.16554 15300 ft 234 kts 114°
2026-05-06 23:54 44.55114 -119.14463 15302 ft 234 kts 114°
2026-05-06 23:54 44.54464 -119.12372 15302 ft 234 kts 114°
2026-05-06 23:54 44.53817 -119.10287 15302 ft 233 kts 114°
2026-05-06 23:54 44.53168 -119.08199 15303 ft 233 kts 114°
2026-05-06 23:55 44.52520 -119.06112 15309 ft 233 kts 114°
2026-05-06 23:55 44.51880 -119.04054 15308 ft 233 kts 114°
2026-05-06 23:55 44.51232 -119.01965 15301 ft 234 kts 114°
2026-05-06 23:55 44.50585 -118.99883 15315 ft 233 kts 114°
2026-05-06 23:56 44.49936 -118.97792 15307 ft 234 kts 114°
2026-05-06 23:56 44.49288 -118.95702 15302 ft 234 kts 114°
2026-05-06 23:56 44.48638 -118.93610 15301 ft 234 kts 114°
2026-05-06 23:56 44.47990 -118.91522 15306 ft 234 kts 114°
2026-05-06 23:57 44.47339 -118.89426 15303 ft 234 kts 114°
2026-05-06 23:57 44.46691 -118.87337 15302 ft 234 kts 114°
2026-05-06 23:57 44.46044 -118.85252 15310 ft 234 kts 114°
2026-05-06 23:57 44.45395 -118.83161 15303 ft 234 kts 114°
2026-05-06 23:58 44.44747 -118.81072 15300 ft 234 kts 114°
2026-05-06 23:58 44.44070 -118.79007 15302 ft 233 kts 116°
2026-05-06 23:58 44.43334 -118.76986 15313 ft 233 kts 118°
2026-05-06 23:58 44.42575 -118.74976 15304 ft 234 kts 118°
2026-05-06 23:59 44.41808 -118.72971 15299 ft 234 kts 118°
2026-05-06 23:59 44.41048 -118.70997 15301 ft 233 kts 118°
2026-05-06 23:59 44.40266 -118.68971 15307 ft 234 kts 118°
2026-05-06 23:59 44.39506 -118.67000 15303 ft 233 kts 118°
2026-05-07 00:00 44.38733 -118.65001 15303 ft 234 kts 118°
2026-05-07 00:00 44.37961 -118.63003 15302 ft 233 kts 118°
2026-05-07 00:00 44.37191 -118.61008 15303 ft 233 kts 118°
2026-05-07 00:00 44.36679 -118.59683 15305 ft 233 kts 118°
2026-05-07 00:01 44.35646 -118.57011 15311 ft 234 kts 118°
2026-05-07 00:01 44.34892 -118.54994 15300 ft 234 kts 117°
2026-05-07 00:01 44.34157 -118.52964 15300 ft 235 kts 117°
2026-05-07 00:01 44.33426 -118.50923 15302 ft 235 kts 116°
2026-05-07 00:02 44.32700 -118.48886 15301 ft 234 kts 116°
2026-05-07 00:02 44.31974 -118.46843 15302 ft 234 kts 116°
2026-05-07 00:02 44.31259 -118.44830 15301 ft 234 kts 116°
2026-05-07 00:02 44.30536 -118.42790 15311 ft 234 kts 116°
2026-05-07 00:03 44.29814 -118.40753 15307 ft 234 kts 116°
2026-05-07 00:03 44.29091 -118.38715 15301 ft 234 kts 116°
2026-05-07 00:03 44.28367 -118.36672 15313 ft 235 kts 116°
2026-05-07 00:03 44.27644 -118.34633 15301 ft 235 kts 116°
2026-05-07 00:04 44.26921 -118.32590 15301 ft 234 kts 116°
2026-05-07 00:04 44.26199 -118.30552 15307 ft 234 kts 116°
2026-05-07 00:04 44.25476 -118.28511 15312 ft 235 kts 116°
2026-05-07 00:04 44.24753 -118.26471 15303 ft 235 kts 116°
2026-05-07 00:05 44.24030 -118.24428 15307 ft 235 kts 116°
2026-05-07 00:05 44.23307 -118.22387 15302 ft 235 kts 116°
2026-05-07 00:05 44.22584 -118.20345 15301 ft 235 kts 116°
2026-05-07 00:05 44.21862 -118.18307 15303 ft 234 kts 116°
2026-05-07 00:06 44.21142 -118.16271 15302 ft 234 kts 116°
2026-05-07 00:06 44.20664 -118.14922 15302 ft 234 kts 116°
2026-05-07 00:06 44.19700 -118.12198 15301 ft 234 kts 116°
2026-05-07 00:06 44.18990 -118.10191 15303 ft 234 kts 116°
2026-05-07 00:07 44.18271 -118.08157 15306 ft 234 kts 116°
2026-05-07 00:07 44.17552 -118.06123 15309 ft 234 kts 116°
2026-05-07 00:07 44.16832 -118.04088 15303 ft 234 kts 116°
2026-05-07 00:07 44.16112 -118.02051 15304 ft 234 kts 116°
2026-05-07 00:08 44.15635 -118.00701 15312 ft 234 kts 116°
2026-05-07 00:08 44.14916 -117.98667 15308 ft 234 kts 116°
2026-05-07 00:08 44.14197 -117.96632 15302 ft 234 kts 116°
2026-05-07 00:08 44.13479 -117.94601 15340 ft 232 kts 116°
2026-05-07 00:09 44.12772 -117.92600 15399 ft 230 kts 116°
2026-05-07 00:09 44.12085 -117.90597 15432 ft 229 kts 115°
2026-05-07 00:09 44.11431 -117.88568 15446 ft 230 kts 114°
2026-05-07 00:09 44.10791 -117.86527 15451 ft 231 kts 114°
2026-05-07 00:10 44.10153 -117.84473 15454 ft 231 kts 113°
2026-05-07 00:10 44.09518 -117.82416 15457 ft 232 kts 113°
2026-05-07 00:10 44.08882 -117.80352 15458 ft 232 kts 113°
2026-05-07 00:10 44.08246 -117.78285 15458 ft 232 kts 113°
2026-05-07 00:11 44.07610 -117.76218 15458 ft 233 kts 113°
2026-05-07 00:11 44.06973 -117.74147 15458 ft 233 kts 113°
2026-05-07 00:11 44.06336 -117.72076 15458 ft 233 kts 113°
2026-05-07 00:11 44.05699 -117.70002 15458 ft 233 kts 113°
2026-05-07 00:12 44.05063 -117.67930 15456 ft 233 kts 113°
2026-05-07 00:12 44.04426 -117.65859 15457 ft 233 kts 113°
2026-05-07 00:12 44.03799 -117.63815 15458 ft 233 kts 113°
2026-05-07 00:12 44.03163 -117.61742 15457 ft 233 kts 113°
2026-05-07 00:13 44.02527 -117.59671 15456 ft 233 kts 113°
2026-05-07 00:13 44.01891 -117.57599 15456 ft 233 kts 113°
2026-05-07 00:13 44.01256 -117.55529 15459 ft 233 kts 113°
2026-05-07 00:13 44.00621 -117.53458 15456 ft 233 kts 113°
2026-05-07 00:14 43.99986 -117.51390 15458 ft 233 kts 113°
2026-05-07 00:14 43.99351 -117.49319 15458 ft 233 kts 113°
2026-05-07 00:14 43.98718 -117.47253 15458 ft 233 kts 113°
2026-05-07 00:14 43.98085 -117.45185 15458 ft 233 kts 113°
2026-05-07 00:15 43.97451 -117.43117 15459 ft 233 kts 113°
2026-05-07 00:15 43.96818 -117.41049 15460 ft 233 kts 113°
2026-05-07 00:15 43.96186 -117.38982 15457 ft 233 kts 113°
2026-05-07 00:15 43.95552 -117.36913 15459 ft 233 kts 113°
2026-05-07 00:16 43.94918 -117.34843 15459 ft 233 kts 113°
2026-05-07 00:16 43.94286 -117.32776 15458 ft 233 kts 113°
2026-05-07 00:16 43.93652 -117.30707 15460 ft 233 kts 113°
2026-05-07 00:16 43.93018 -117.28633 15459 ft 233 kts 113°
2026-05-07 00:17 43.92385 -117.26563 15457 ft 233 kts 113°
2026-05-07 00:17 43.91759 -117.24517 15455 ft 233 kts 113°
2026-05-07 00:17 43.91127 -117.22447 15456 ft 233 kts 113°
2026-05-07 00:17 43.90494 -117.20376 15455 ft 233 kts 113°
2026-05-07 00:18 43.89861 -117.18307 15457 ft 233 kts 113°
2026-05-07 00:18 43.89230 -117.16241 15457 ft 233 kts 113°
2026-05-07 00:18 43.88598 -117.14171 15457 ft 233 kts 113°
2026-05-07 00:18 43.87967 -117.12105 15458 ft 233 kts 113°
2026-05-07 00:19 43.87337 -117.10040 15457 ft 233 kts 113°
2026-05-07 00:19 43.86706 -117.07972 15458 ft 233 kts 113°
2026-05-07 00:19 43.86075 -117.05906 15456 ft 233 kts 113°
2026-05-07 00:19 43.85444 -117.03836 15457 ft 233 kts 113°
2026-05-07 00:20 43.84813 -117.01770 15458 ft 233 kts 113°
2026-05-07 00:20 43.84183 -116.99705 15457 ft 233 kts 113°
2026-05-07 00:20 43.83553 -116.97637 15459 ft 233 kts 113°
2026-05-07 00:20 43.82923 -116.95569 15458 ft 233 kts 113°
2026-05-07 00:21 43.82293 -116.93503 15460 ft 233 kts 113°
2026-05-07 00:21 43.81662 -116.91432 15457 ft 233 kts 113°
2026-05-07 00:21 43.81036 -116.89377 15294 ft 239 kts 113°
2026-05-07 00:21 43.80392 -116.87263 14918 ft 237 kts 113°
2026-05-07 00:22 43.79754 -116.85169 14540 ft 235 kts 113°
2026-05-07 00:22 43.79122 -116.83092 14163 ft 233 kts 113°
2026-05-07 00:22 43.78494 -116.81030 13788 ft 232 kts 113°
2026-05-07 00:22 43.77870 -116.78977 13413 ft 231 kts 113°
2026-05-07 00:23 43.77249 -116.76940 13031 ft 229 kts 114°
2026-05-07 00:23 43.76581 -116.74939 12658 ft 226 kts 116°
2026-05-07 00:23 43.75903 -116.73011 12283 ft 220 kts 116°
2026-05-07 00:23 43.75231 -116.71137 11906 ft 215 kts 117°
2026-05-07 00:24 43.74567 -116.69304 11529 ft 211 kts 117°
2026-05-07 00:24 43.73912 -116.67500 11155 ft 209 kts 117°
2026-05-07 00:24 43.73271 -116.65738 10784 ft 206 kts 117°
2026-05-07 00:24 43.72628 -116.63973 10404 ft 205 kts 117°
2026-05-07 00:25 43.71991 -116.62223 10030 ft 203 kts 117°
2026-05-07 00:25 43.71358 -116.60483 9655 ft 202 kts 117°
2026-05-07 00:25 43.70730 -116.58756 9280 ft 201 kts 117°
2026-05-07 00:25 43.70104 -116.57038 8905 ft 200 kts 117°
2026-05-07 00:26 43.69482 -116.55327 8525 ft 199 kts 117°
2026-05-07 00:26 43.68863 -116.53625 8152 ft 198 kts 117°
2026-05-07 00:26 43.68247 -116.51931 7776 ft 197 kts 117°
2026-05-07 00:26 43.67634 -116.50245 7396 ft 196 kts 117°
2026-05-07 00:27 43.66924 -116.48670 7133 ft 189 kts 129°
2026-05-07 00:27 43.66075 -116.47303 6841 ft 186 kts 132°
2026-05-07 00:27 43.65199 -116.45964 6553 ft 190 kts 131°
2026-05-07 00:27 43.64351 -116.44548 6254 ft 192 kts 128°
2026-05-07 00:28 43.63580 -116.43076 5948 ft 187 kts 123°
2026-05-07 00:28 43.62941 -116.41542 5666 ft 181 kts 117°
2026-05-07 00:28 43.62396 -116.40007 5404 ft 176 kts 116°
2026-05-07 00:28 43.61889 -116.38492 5191 ft 171 kts 114°
2026-05-07 00:29 43.61435 -116.37077 5103 ft 154 kts 115°
2026-05-07 00:29 43.61000 -116.35790 5037 ft 138 kts 116°
2026-05-07 00:30 43.59795 -116.32340 4606 ft 132 kts 116°
2026-05-07 00:30 43.59407 -116.31196 4432 ft 130 kts 116°
2026-05-07 00:30 43.59032 -116.30142 4244 ft 116 kts 117°
2026-05-07 00:30 43.58682 -116.29166 3978 ft 113 kts 115°
2026-05-07 00:31 43.58346 -116.28166 3777 ft 120 kts 115°
2026-05-07 00:31 43.57990 -116.27127 3573 ft 120 kts 115°
2026-05-07 00:31 43.57635 -116.26109 3289 ft 115 kts 115°
2026-05-07 00:31 43.57307 -116.25141 3092 ft 108 kts 116°
2026-05-07 00:32 43.56996 -116.24236 2901 ft 102 kts 115°
2026-05-07 00:32 43.56718 -116.23428 2878 ft 86 kts 114°
2026-05-07 00:32 43.56502 -116.22789 2880 ft 44 kts 115°
2026-05-07 00:32 43.56378 -116.22545 2878 ft 23 kts 184°
2026-05-07 00:33 43.56329 -116.22677 2878 ft 18 kts 295°
2026-05-07 00:33 43.56396 -116.22870 2879 ft 30 kts 295°
2026-05-07 00:33 43.56501 -116.23179 2878 ft 36 kts 295°
2026-05-07 00:33 43.56605 -116.23483 2878 ft 29 kts 295°
2026-05-07 00:34 43.56611 -116.23732 2878 ft 29 kts 265°
2026-05-07 00:34 43.56593 -116.24030 2878 ft 31 kts 265°
2026-05-07 00:34 43.56578 -116.24282 2878 ft 17 kts 267°
2026-05-07 00:34 43.56581 -116.24395 2878 ft 4 kts 266°
2026-05-07 00:35 43.56581 -116.24396 2878 ft 0 kts 267°